Wind_Speed
5 5 5 3 1 2 3 1 2 1 4 5 5 8 9 6 4 3 7 6 6 6 7 8 10 10 11 11 12 13 14 14 15 14 15 14 14 13 13 12 11 10 9 8 7 7 6 6 6
5 5 5 4 1 3 3 2 1 2 2 3 5 7 5 8 7 5 7 7 8 9 9 10 9 9 10 11 12 13 13 14 15 15 15 16 16 16 16 16 15 14 13 12 11 10 9 8 8
4 5 5 3 2 1 2 3 1 1 1 5 8 8 9 9 7 9 10 10 10 10 9 9 10 10 10 13 15 16 16 16 16 17 17 17 17 17 17 17 18 18 17 16 14 14 14 12 11
4 5 4 5 8 5 5 3 3 1 6 7 8 8 10 12 9 10 11 14 13 13 12 12 15 16 18 20 20 19 19 19 20 19 18 20 20 18 20 20 19 20 20 19 18 17 17 16 15
4 4 2 8 8 7 5 3 2 5 9 10 10 14 14 12 10 13 15 16 15 16 17 17 19 20 20 22 22 21 21 20 20 21 21 22 22 21 21 22 22 21 22 21 20 20 19 19 18
4 4 7 6 8 6 3 1 1 4 7 10 13 14 15 12 12 14 15 18 18 19 22 23 25 27 27 26 27 31 27 27 25 24 23 26 25 23 23 24 24 26 27 23 22 21 22 22 22
3 5 8 10 7 3 0 2 5 7 8 11 10 13 15 15 17 18 20 20 24 25 26 29 31 32 31 27 28 29 28 30 29 26 27 26 27 28 27 27 27 26 26 26 24 26 26 26 25
6 8 10 7 4 2 2 4 7 10 12 12 11 11 15 20 22 21 20 22 25 28 28 28 27 23 33 36 35 35 35 32 31 34 33 36 35 36 36 34 32 32 29 30 29 28 29 27 26
6 8 8 6 3 1 5 8 13 15 14 13 13 16 20 21 21 22 24 26 29 31 33 33 34 36 35 36 36 35 34 35 39 37 37 38 38 39 38 38 35 34 34 32 34 34 34 33 31
5 8 7 4 2 5 6 7 9 12 14 15 16 16 17 17 19 21 24 27 29 31 32 33 35 35 35 34 33 33 34 35 36 36 37 37 38 39 40 41 41 40 38 36 36 36 36 38 37
3 2 5 1 1 5 9 10 12 15 16 18 16 17 20 24 26 27 29 31 33 35 35 36 37 37 39 40 41 40 38 37 37 37 38 40 41 41 41 41 41 41 41 40 40 40 39 39 39
3 4 4 4 4 8 12 13 14 13 16 19 21 23 23 25 28 31 32 35 36 38 39 39 39 40 40 40 41 43 45 43 41 41 40 39 40 39 38 40 40 39 38 38 39 42 43 42 43
2 4 1 5 7 10 13 14 16 15 15 18 21 23 25 28 30 32 33 35 36 38 39 40 41 42 43 42 42 42 43 45 46 46 45 43 41 41 42 42 41 42 42 41 38 38 39 40 41
3 0 5 9 9 13 16 19 18 18 17 18 21 24 27 29 30 31 31 33 36 38 40 43 45 46 48 50 51 51 51 52 52 52 50 50 49 47 44 43 43 44 44 44 47 46 44 43 42
1 4 9 12 12 15 19 21 19 23 20 21 24 28 30 29 27 30 33 34 37 40 45 48 51 54 57 58 55 53 53 54 54 51 47 43 42 44 46 48 48 46 46 47 50 53 51 51 52
4 5 6 12 19 18 23 23 20 18 21 22 24 23 21 21 25 28 34 40 44 49 53 54 55 52 49 50 50 49 45 42 40 37 37 38 39 39 41 42 43 43 45 46 49 55 57 56 57
5 8 14 16 19 24 19 19 20 19 18 19 19 20 23 27 32 38 44 48 49 46 41 37 37 41 42 41 37 37 41 42 39 37 31 33 33 35 38 41 40 40 41 43 45 49 53 54 55
14 16 15 14 29 25 27 21 18 15 15 14 16 23 28 35 43 50 45 38 37 40 41 44 45 43 39 37 38 36 34 34 42 41 40 38 36 35 35 37 39 40 42 41 40 42 43 44 45
18 20 16 19 23 26 18 16 11 11 9 12 20 29 36 44 50 41 41 43 45 45 46 44 41 39 39 39 40 40 40 38 33 39 40 42 43 40 38 35 35 36 38 38 38 38 39 38 39
22 12 18 18 27 26 18 15 10 11 14 21 27 35 46 55 45 41 45 46 45 43 43 43 43 44 44 44 45 44 43 42 39 35 37 41 41 41 41 40 37 36 36 38 38 38 38 38 37
25 22 29 31 30 19 10 6 6 9 12 19 26 39 53 47 43 45 49 48 46 48 49 50 51 52 51 49 48 48 47 46 44 41 41 40 40 41 43 43 40 38 37 37 37 38 38 37 37
13 28 35 34 10 5 6 6 1 8 16 26 36 52 51 44 47 50 50 50 51 52 52 53 53 53 52 51 51 51 52 52 49 46 45 44 43 41 40 39 39 39 38 38 39 38 38 39 37
24 32 32 14 4 2 5 10 4 10 25 36 42 51 46 48 50 50 51 53 54 54 51 47 45 41 39 40 39 42 45 48 52 52 50 48 46 46 44 43 42 41 41 41 41 40 40 39 39
29 35 19 11 6 2 2 12 5 13 27 37 51 45 48 50 51 54 55 55 54 49 47 44 44 41 43 43 43 42 41 41 44 44 46 49 51 51 49 48 47 44 45 45 44 43 41 39 39
27 34 8 5 7 6 11 15 3 15 28 38 40 45 47 48 53 55 57 54 49 46 43 44 45 45 44 42 40 40 41 42 43 41 41 42 43 44 49 52 53 51 48 47 47 45 43 40 40
26 23 9 6 8 16 13 10 5 17 34 40 41 43 45 50 55 56 54 52 49 46 45 44 41 42 40 35 37 36 36 35 36 37 39 40 39 39 40 40 43 47 51 53 53 50 46 42 41
15 17 15 7 5 8 7 8 12 26 40 45 47 46 51 56 58 56 54 52 48 41 42 47 49 46 44 43 36 33 33 35 36 35 35 36 35 34 33 34 36 37 38 39 40 45 49 46 42
19 21 7 7 8 9 11 15 12 38 44 47 50 51 56 59 59 58 56 53 47 42 44 49 57 51 48 42 40 38 35 33 33 33 33 31 30 29 28 29 30 31 30 31 33 33 34 36 37
16 14 8 3 2 5 8 5 17 33 39 44 48 52 57 59 59 59 57 53 49 47 45 49 53 48 41 39 38 36 34 34 35 34 32 30 28 26 24 24 24 24 26 26 26 29 31 32 32
17 17 12 5 9 4 7 10 20 32 38 42 47 53 57 59 60 59 57 54 47 48 53 53 50 43 42 39 36 32 30 30 30 28 26 27 26 26 25 18 17 20 20 23 25 25 26 26 29
Wind_Direction
168 169 163 170 77 113 109 86 149 29 329 343 347 345 331 341 311 254 277 270 298 302 286 290 283 284 287 292 291 292 287 289 284 284 279 276 275 273 274 276 276 274 269 263 262 258 252 251 252
193 185 183 174 250 237 92 84 217 271 322 337 328 326 310 315 311 297 262 274 284 283 282 276 281 286 292 293 290 287 286 285 285 286 286 287 283 278 274 272 270 267 265 264 260 259 254 248 246
203 189 185 174 175 111 101 172 199 195 279 309 306 301 285 298 279 282 284 283 281 275 287 288 291 283 288 290 291 288 279 273 272 275 277 278 277 275 276 271 269 267 263 260 255 254 253 252 252
188 177 186 97 99 121 136 177 189 261 315 308 303 287 281 296 275 273 275 282 282 278 277 276 283 285 290 294 292 289 282 276 272 268 270 271 273 275 272 270 265 259 256 258 259 258 258 253 253
179 166 131 112 103 110 154 165 219 275 300 304 299 295 296 303 282 284 293 302 277 281 279 274 276 277 281 282 277 279 288 280 276 276 275 269 268 270 270 271 273 272 258 255 252 253 256 259 260
170 155 130 127 116 116 123 132 307 289 295 301 306 302 292 290 276 279 279 280 276 272 267 266 270 270 274 274 275 276 288 278 276 270 272 273 273 273 274 274 271 268 276 273 269 260 254 253 256
171 164 139 126 123 126 98 301 305 305 287 293 290 276 283 281 284 290 281 283 282 280 276 274 273 271 274 276 275 282 279 276 275 274 275 272 269 271 274 278 270 268 271 268 259 259 261 261 258
148 146 129 137 139 189 275 291 281 283 291 290 284 273 277 280 282 281 264 269 273 277 275 277 279 282 283 286 284 281 282 275 276 277 275 272 271 275 274 276 273 267 269 263 261 259 259 262 260
130 139 123 135 111 314 278 291 289 289 290 288 278 276 282 281 278 274 271 269 268 270 272 275 277 280 283 283 283 281 277 270 275 275 273 272 275 274 272 271 271 270 269 266 261 260 259 260 259
150 126 150 157 178 297 320 290 285 286 283 279 271 265 264 263 262 261 261 262 264 266 269 272 274 274 275 274 272 271 271 272 272 271 270 270 270 271 273 274 272 268 266 265 263 262 260 259 258
98 115 112 86 271 300 286 294 294 283 274 272 268 261 254 254 257 262 266 269 272 274 277 278 280 282 282 281 280 279 278 276 276 275 276 276 275 275 273 270 268 267 266 264 263 261 259 259 259
77 107 160 234 261 286 294 290 287 270 266 261 262 265 265 265 267 269 272 274 277 279 282 284 285 284 284 286 286 286 285 283 282 280 279 278 277 275 273 273 272 270 267 265 264 261 261 261 260
118 149 219 287 289 299 300 302 286 274 272 272 274 274 274 274 273 275 278 282 285 286 286 287 287 288 288 288 287 288 289 291 291 290 287 282 280 279 277 274 271 270 270 268 265 264 263 261 259
147 86 321 314 303 306 303 302 291 288 285 284 283 282 280 280 282 284 287 289 291 294 296 298 300 301 299 297 296 296 295 294 294 294 293 291 287 282 278 274 272 270 268 268 269 264 261 261 261
348 321 320 307 308 310 308 297 293 294 287 285 283 282 287 289 293 296 301 306 307 312 310 310 310 309 307 305 304 300 297 296 296 294 291 287 285 284 282 278 276 275 276 276 275 271 268 264 261
340 321 321 304 305 303 314 292 301 290 288 288 287 287 286 300 313 316 317 319 315 312 308 305 305 309 310 307 303 298 291 288 287 282 279 282 285 282 283 280 278 279 281 283 283 280 276 274 272
329 317 315 312 306 309 305 294 299 289 282 287 287 296 316 314 314 309 319 318 320 320 321 324 325 323 322 320 317 306 292 282 282 280 274 274 274 273 272 272 273 273 274 277 282 283 282 280 279
331 324 315 312 318 321 319 307 294 273 276 296 326 333 326 323 328 334 334 333 332 329 326 322 322 320 319 316 314 312 309 301 277 277 278 279 282 280 278 271 270 271 269 270 272 274 273 274 276
338 326 316 325 323 330 321 313 294 279 293 313 312 319 335 339 341 336 333 331 325 319 317 319 320 319 318 313 308 305 303 304 300 273 273 279 282 282 280 281 274 271 269 268 267 266 267 266 270
338 341 329 338 324 320 297 300 291 285 319 334 331 335 342 339 339 335 332 329 326 325 324 320 317 313 310 306 303 301 299 297 294 289 279 276 276 276 277 276 275 271 269 264 263 264 264 265 266
347 340 332 319 317 317 298 283 296 325 348 329 327 342 341 339 335 334 333 332 330 327 323 320 316 311 307 303 298 295 292 289 287 286 284 279 274 271 271 270 271 269 271 268 264 264 266 266 264
355 339 332 321 327 308 325 307 326 339 348 345 345 340 337 339 336 335 336 334 331 327 321 315 311 307 304 302 298 294 290 289 287 283 279 277 275 273 270 269 268 265 264 264 265 265 266 268 269
343 344 333 334 331 329 344 296 339 353 346 350 345 340 340 338 337 337 337 333 329 325 325 325 322 319 316 309 303 300 294 290 287 282 279 276 274 273 272 270 265 264 264 264 263 263 264 266 269
348 353 335 346 338 238 0 352 26 1 351 345 339 338 337 338 340 339 338 335 332 333 330 329 327 326 323 317 310 306 298 297 294 290 285 279 273 270 270 269 267 264 262 262 263 264 263 262 263
356 9 356 327 342 5 320 315 298 344 344 341 340 338 341 343 342 339 339 339 338 338 338 337 334 331 324 318 314 308 302 298 294 291 289 287 282 276 270 267 267 265 264 263 262 261 261 260 259
9 29 44 314 328 317 316 323 335 347 337 338 341 342 343 344 344 343 342 344 343 342 343 339 333 331 330 320 313 308 304 303 301 299 293 285 283 278 275 271 268 266 264 260 261 261 259 257 256
4 15 6 299 281 290 319 337 332 339 339 343 342 347 347 348 347 347 347 346 346 344 346 340 335 329 323 323 317 310 303 305 301 299 297 293 286 284 277 271 268 266 265 263 260 259 253 252 251
12 15 4 350 348 317 334 330 333 342 340 342 344 346 348 349 350 352 351 348 346 342 336 335 337 337 337 330 321 311 305 301 301 295 294 296 293 288 285 282 272 264 263 262 257 257 253 248 246
4 21 14 47 16 312 318 28 342 340 339 340 341 347 350 350 355 353 351 350 350 347 339 336 342 342 345 343 337 335 328 315 306 292 290 290 290 288 284 285 278 272 269 258 255 256 252 249 248
353 9 31 24 334 282 277 296 343 340 340 342 344 347 352 354 355 353 351 353 352 350 349 348 348 349 349 348 347 343 336 336 332 328 310 293 286 280 278 269 285 276 265 254 256 255 249 248 244
Height
3184 3185 3185 3186 3191 3189 3189 3190 3188 3189 3188 3186 3186 3185 3184 3183 3182 3184 3178 3176 3176 3174 3173 3172 3170 3169 3168 3167 3165 3163 3162 3161 3160 3159 3157 3156 3155 3154 3153 3152 3152 3151 3150 3150 3150 3149 3149 3149 3148
3184 3185 3186 3186 3190 3187 3190 3190 3189 3188 3187 3187 3186 3185 3183 3181 3179 3178 3176 3175 3174 3172 3171 3169 3168 3167 3166 3164 3163 3161 3161 3159 3158 3156 3155 3154 3153 3152 3151 3150 3150 3149 3148 3147 3147 3147 3147 3147 3146
3185 3186 3188 3187 3188 3189 3191 3189 3189 3188 3187 3186 3185 3184 3182 3180 3178 3177 3175 3174 3173 3170 3169 3167 3166 3165 3163 3161 3160 3159 3157 3156 3154 3153 3152 3151 3150 3149 3148 3147 3146 3146 3145 3145 3144 3144 3143 3144 3143
3185 3187 3189 3190 3189 3189 3189 3189 3189 3189 3187 3186 3184 3183 3181 3178 3177 3175 3174 3172 3170 3168 3167 3165 3164 3163 3161 3159 3157 3155 3153 3151 3149 3148 3148 3147 3146 3144 3143 3143 3142 3141 3141 3142 3141 3140 3140 3140 3140
3186 3187 3188 3189 3188 3189 3188 3189 3189 3188 3186 3185 3183 3180 3178 3176 3174 3173 3171 3169 3167 3166 3164 3162 3160 3157 3155 3154 3152 3150 3149 3148 3146 3143 3142 3141 3141 3140 3139 3139 3138 3137 3136 3136 3136 3136 3137 3136 3136
3186 3187 3189 3189 3189 3188 3188 3188 3188 3187 3185 3183 3181 3178 3175 3173 3170 3168 3166 3164 3162 3160 3158 3156 3153 3151 3150 3148 3145 3144 3143 3142 3140 3139 3138 3136 3135 3135 3134 3133 3133 3132 3131 3131 3133 3132 3132 3132 3132
3185 3185 3186 3188 3188 3188 3187 3187 3186 3185 3182 3180 3178 3175 3172 3170 3168 3166 3164 3161 3159 3156 3154 3151 3148 3145 3143 3142 3140 3138 3136 3135 3134 3133 3132 3131 3129 3129 3128 3127 3127 3126 3126 3126 3125 3126 3127 3127 3127
3184 3185 3186 3187 3188 3188 3187 3186 3183 3181 3180 3178 3176 3172 3170 3167 3164 3162 3160 3157 3154 3151 3148 3145 3143 3139 3138 3136 3135 3133 3131 3130 3127 3127 3125 3125 3123 3122 3120 3120 3120 3120 3120 3119 3119 3120 3119 3121 3122
3185 3186 3186 3186 3188 3187 3186 3185 3181 3179 3177 3176 3175 3171 3168 3165 3161 3158 3156 3152 3148 3144 3140 3137 3135 3133 3130 3128 3125 3123 3122 3120 3119 3117 3116 3114 3113 3113 3112 3111 3111 3110 3111 3112 3112 3113 3113 3114 3114
3185 3186 3186 3186 3186 3186 3185 3182 3180 3178 3174 3172 3169 3165 3162 3158 3155 3152 3147 3143 3139 3135 3133 3131 3128 3125 3122 3119 3116 3114 3113 3111 3110 3109 3108 3106 3105 3103 3102 3102 3102 3101 3101 3101 3103 3104 3105 3106 3107
3186 3187 3187 3187 3185 3184 3180 3180 3178 3175 3172 3168 3165 3161 3156 3152 3148 3146 3142 3138 3135 3132 3129 3125 3123 3119 3116 3113 3109 3106 3104 3102 3100 3099 3098 3097 3096 3095 3094 3092 3091 3091 3091 3091 3092 3093 3095 3096 3098
3186 3185 3185 3183 3183 3182 3180 3178 3174 3171 3167 3162 3157 3155 3153 3149 3146 3143 3138 3134 3131 3127 3122 3119 3115 3111 3107 3104 3100 3097 3095 3093 3092 3090 3089 3089 3087 3086 3084 3084 3083 3082 3081 3080 3081 3083 3083 3085 3086
3186 3185 3184 3185 3183 3181 3177 3173 3170 3166 3162 3159 3155 3152 3150 3146 3141 3138 3133 3129 3124 3120 3115 3111 3107 3103 3100 3097 3094 3090 3087 3085 3083 3081 3078 3078 3076 3075 3074 3073 3073 3072 3072 3071 3071 3071 3073 3074 3075
3187 3186 3185 3183 3180 3178 3175 3171 3168 3163 3159 3156 3154 3150 3145 3141 3138 3134 3129 3124 3120 3115 3109 3104 3099 3096 3092 3088 3085 3082 3080 3076 3073 3070 3068 3066 3064 3064 3062 3061 3061 3061 3060 3061 3062 3060 3061 3063 3064
3188 3187 3184 3181 3179 3176 3170 3166 3163 3160 3157 3154 3150 3146 3142 3139 3135 3131 3125 3120 3115 3110 3104 3099 3093 3087 3080 3075 3070 3067 3065 3062 3060 3058 3056 3054 3051 3050 3049 3049 3048 3047 3046 3045 3046 3048 3048 3049 3051
3189 3188 3188 3183 3179 3174 3172 3164 3160 3157 3153 3149 3146 3143 3140 3138 3133 3128 3122 3117 3111 3105 3097 3091 3083 3077 3071 3064 3058 3053 3049 3046 3045 3043 3041 3039 3037 3036 3034 3033 3034 3033 3031 3031 3030 3030 3032 3033 3035
3189 3188 3183 3179 3176 3172 3171 3163 3158 3155 3151 3147 3144 3141 3138 3134 3130 3125 3118 3111 3103 3095 3087 3081 3074 3067 3059 3053 3048 3043 3039 3037 3034 3033 3031 3028 3025 3024 3021 3019 3020 3020 3019 3018 3017 3016 3015 3017 3019
3188 3184 3181 3177 3172 3166 3165 3160 3154 3151 3149 3147 3144 3141 3137 3131 3124 3117 3109 3102 3095 3088 3081 3073 3067 3060 3053 3046 3040 3035 3031 3027 3025 3022 3019 3018 3016 3014 3012 3009 3008 3008 3008 3007 3007 3006 3005 3005 3005
3186 3183 3178 3177 3170 3167 3158 3153 3151 3151 3150 3147 3143 3138 3133 3127 3119 3112 3105 3098 3091 3083 3075 3067 3060 3053 3046 3039 3032 3026 3021 3017 3013 3011 3009 3008 3006 3004 3002 3000 2998 2999 2998 2998 2998 2997 2996 2997 2996
3185 3182 3181 3174 3166 3165 3155 3152 3151 3149 3148 3145 3140 3135 3128 3121 3114 3108 3101 3093 3084 3075 3067 3059 3051 3044 3037 3030 3023 3016 3010 3005 3002 2999 2997 2997 2995 2992 2990 2990 2988 2988 2986 2986 2987 2987 2987 2987 2988
3183 3181 3175 3171 3164 3158 3156 3153 3151 3149 3148 3144 3139 3133 3126 3118 3110 3102 3094 3085 3076 3067 3058 3049 3040 3032 3024 3017 3010 3004 2998 2993 2990 2987 2984 2983 2982 2981 2979 2978 2977 2976 2975 2974 2976 2976 2975 2977 2979
3183 3179 3172 3163 3160 3161 3158 3155 3150 3147 3145 3141 3136 3129 3122 3113 3105 3097 3086 3077 3069 3058 3049 3039 3030 3020 3012 3004 2996 2990 2984 2978 2976 2973 2971 2969 2968 2967 2967 2966 2965 2964 2964 2964 2965 2966 2965 2967 2967
3182 3174 3165 3159 3159 3160 3160 3157 3148 3147 3143 3138 3132 3126 3117 3110 3100 3090 3081 3071 3061 3050 3038 3027 3018 3009 3001 2993 2986 2978 2971 2966 2962 2958 2955 2955 2954 2953 2952 2953 2953 2953 2953 2953 2954 2955 2956 2956 2956
3177 3171 3163 3159 3159 3156 3160 3159 3151 3146 3143 3137 3132 3124 3115 3106 3095 3085 3075 3064 3051 3040 3029 3020 3009 3002 2992 2983 2975 2967 2960 2954 2949 2945 2940 2939 2938 2938 2938 2938 2938 2939 2940 2941 2942 2943 2945 2946 2947
3178 3170 3165 3160 3157 3158 3158 3154 3150 3149 3145 3140 3131 3122 3113 3103 3091 3079 3065 3053 3042 3031 3021 3010 3000 2990 2982 2973 2964 2956 2949 2943 2936 2932 2928 2925 2922 2921 2922 2923 2923 2924 2926 2927 2929 2931 2933 2935 2936
3180 3180 3182 3179 3163 3161 3156 3153 3153 3147 3144 3135 3128 3119 3110 3100 3088 3074 3061 3046 3034 3022 3013 3003 2992 2981 2971 2961 2952 2945 2938 2930 2924 2919 2915 2911 2909 2907 2908 2907 2907 2908 2909 2912 2914 2917 2920 2923 2925
3184 3182 3181 3177 3172 3165 3157 3156 3149 3148 3138 3128 3120 3112 3103 3092 3080 3068 3054 3041 3028 3017 3008 2997 2984 2972 2961 2951 2942 2933 2927 2921 2914 2908 2903 2899 2896 2895 2894 2895 2894 2895 2896 2897 2899 2901 2906 2910 2913
3186 3185 3182 3181 3175 3164 3152 3150 3152 3145 3134 3124 3113 3107 3098 3087 3075 3060 3047 3035 3023 3013 3002 2991 2977 2962 2950 2939 2930 2923 2916 2910 2903 2897 2892 2888 2885 2884 2883 2883 2883 2883 2885 2886 2888 2891 2894 2898 2902
3186 3183 3181 3180 3180 3176 3164 3154 3155 3150 3138 3127 3116 3106 3095 3083 3069 3055 3043 3032 3020 3009 2997 2984 2969 2955 2943 2933 2923 2914 2905 2898 2892 2886 2882 2879 2876 2874 2873 2873 2873 2874 2875 2877 2879 2882 2885 2888 2892
3185 3183 3182 3181 3180 3178 3176 3163 3158 3150 3139 3129 3117 3106 3094 3081 3067 3053 3041 3028 3016 3004 2991 2976 2963 2950 2939 2929 2918 2908 2899 2892 2884 2877 2872 2869 2867 2866 2865 2866 2866 2866 2867 2869 2871 2873 2876 2879 2883